TimeEDT,TemperatureF,Dew PointF,Humidity,Sea Level PressureIn,VisibilityMPH,Wind Direction,Wind SpeedMPH,Gust SpeedMPH,PrecipitationIn,Events,Conditions,WindDirDegrees,DateUTC
12:15 AM,54.5,50.7,87,29.94,10.0,Calm,Calm,-,N/A,,Clear,0,2013-10-03 04:15:00
12:35 AM,54.0,50.9,89,29.95,10.0,WNW,4.6,-,N/A,,Clear,290,2013-10-03 04:35:00
12:55 AM,54.3,50.7,88,29.95,10.0,Calm,Calm,-,N/A,,Clear,0,2013-10-03 04:55:00
1:15 AM,50.7,48.9,94,29.96,7.0,Calm,Calm,-,N/A,,Clear,0,2013-10-03 05:15:00
1:35 AM,51.4,49.5,93,29.96,10.0,Calm,Calm,-,N/A,,Clear,0,2013-10-03 05:35:00
1:55 AM,50.0,48.4,94,29.97,7.0,Calm,Calm,-,N/A,,Clear,0,2013-10-03 05:55:00
2:15 AM,49.6,48.4,95,29.98,7.0,Calm,Calm,-,N/A,,Clear,0,2013-10-03 06:15:00
2:35 AM,49.5,47.7,94,29.98,10.0,Calm,Calm,-,N/A,,Clear,0,2013-10-03 06:35:00
2:55 AM,49.8,48.0,94,29.98,10.0,Calm,Calm,-,N/A,,Clear,0,2013-10-03 06:55:00
3:15 AM,48.7,46.8,93,29.98,10.0,Calm,Calm,-,N/A,,Clear,0,2013-10-03 07:15:00
3:35 AM,48.0,46.8,95,29.98,7.0,Calm,Calm,-,N/A,,Clear,0,2013-10-03 07:35:00
3:55 AM,50.7,48.6,92,29.99,10.0,Calm,Calm,-,N/A,,Clear,0,2013-10-03 07:55:00
4:15 AM,48.0,46.2,93,29.99,7.0,Calm,Calm,-,N/A,,Clear,0,2013-10-03 08:15:00
4:35 AM,47.7,46.2,95,29.99,10.0,Calm,Calm,-,N/A,,Clear,0,2013-10-03 08:35:00
4:55 AM,47.8,46.4,95,29.99,10.0,Calm,Calm,-,N/A,,Clear,0,2013-10-03 08:55:00
5:15 AM,50.0,48.0,93,30.00,10.0,WNW,4.6,-,N/A,,Clear,290,2013-10-03 09:15:00
5:35 AM,51.1,47.1,86,30.01,10.0,West,4.6,-,N/A,,Clear,280,2013-10-03 09:35:00
5:55 AM,50.9,47.1,87,30.02,10.0,Calm,Calm,-,N/A,,Clear,0,2013-10-03 09:55:00
6:15 AM,46.8,45.0,93,30.03,10.0,Calm,Calm,-,N/A,,Clear,0,2013-10-03 10:15:00
6:35 AM,46.2,44.4,93,30.04,7.0,Calm,Calm,-,N/A,,Clear,0,2013-10-03 10:35:00
6:55 AM,45.7,44.6,96,30.05,5.0,Calm,Calm,-,N/A,,Clear,0,2013-10-03 10:55:00
7:15 AM,45.5,44.6,97,30.05,7.0,Calm,Calm,-,N/A,,Clear,0,2013-10-03 11:15:00
7:35 AM,46.9,45.7,95,30.06,7.0,Calm,Calm,-,N/A,,Clear,0,2013-10-03 11:35:00
7:55 AM,47.8,46.8,96,30.07,10.0,Calm,Calm,-,N/A,,Clear,0,2013-10-03 11:55:00
8:15 AM,48.7,47.1,94,30.07,10.0,Calm,Calm,-,N/A,,Clear,0,2013-10-03 12:15:00
8:35 AM,52.0,48.6,88,30.08,10.0,Calm,Calm,-,N/A,,Clear,0,2013-10-03 12:35:00
8:55 AM,55.4,48.2,77,30.09,10.0,Calm,Calm,-,N/A,,Clear,0,2013-10-03 12:55:00
9:15 AM,57.0,48.7,74,30.09,10.0,Calm,Calm,-,N/A,,Clear,0,2013-10-03 13:15:00
9:35 AM,58.1,49.5,73,30.09,10.0,Calm,Calm,-,N/A,,Clear,0,2013-10-03 13:35:00
9:55 AM,61.0,50.0,67,30.08,10.0,Calm,Calm,-,N/A,,Clear,0,2013-10-03 13:55:00
10:15 AM,63.5,48.4,58,30.08,10.0,Calm,Calm,-,N/A,,Clear,0,2013-10-03 14:15:00
10:35 AM,66.2,44.4,45,30.08,10.0,West,5.8,-,N/A,,Clear,270,2013-10-03 14:35:00
10:55 AM,67.1,42.6,41,30.08,10.0,West,8.1,-,N/A,,Clear,270,2013-10-03 14:55:00
11:15 AM,68.2,42.4,39,30.08,10.0,West,5.8,-,N/A,,Clear,270,2013-10-03 15:15:00
11:35 AM,69.3,41.7,37,30.07,10.0,West,8.1,-,N/A,,Clear,280,2013-10-03 15:35:00
11:55 AM,69.8,42.4,37,30.07,10.0,West,9.2,-,N/A,,Clear,270,2013-10-03 15:55:00
12:15 PM,70.7,42.6,36,30.07,10.0,West,6.9,-,N/A,,Clear,260,2013-10-03 16:15:00
12:35 PM,71.6,42.6,35,30.06,10.0,West,6.9,-,N/A,,Clear,270,2013-10-03 16:35:00
12:55 PM,72.1,41.2,33,30.05,10.0,West,8.1,-,N/A,,Clear,260,2013-10-03 16:55:00
1:15 PM,72.7,40.1,31,30.04,10.0,NW,6.9,-,N/A,,Clear,310,2013-10-03 17:15:00
1:35 PM,73.2,40.8,31,30.04,10.0,NW,11.5,-,N/A,,Clear,310,2013-10-03 17:35:00
1:55 PM,73.4,42.3,33,30.03,10.0,NW,6.9,-,N/A,,Clear,310,2013-10-03 17:55:00
2:15 PM,73.4,42.3,33,30.02,10.0,WNW,10.4,-,N/A,,Clear,290,2013-10-03 18:15:00
2:35 PM,73.0,42.8,34,30.02,10.0,NW,6.9,-,N/A,,Clear,310,2013-10-03 18:35:00
2:55 PM,73.8,42.3,32,30.02,10.0,West,9.2,-,N/A,,Clear,280,2013-10-03 18:55:00
3:15 PM,72.9,42.4,33,30.01,10.0,WNW,9.2,-,N/A,,Clear,300,2013-10-03 19:15:00
3:35 PM,73.0,43.9,35,30.01,10.0,NW,6.9,-,N/A,,Clear,310,2013-10-03 19:35:00
3:55 PM,72.5,43.0,35,30.01,10.0,WNW,4.6,-,N/A,,Clear,290,2013-10-03 19:55:00
4:15 PM,73.6,44.6,35,30.01,10.0,Calm,Calm,-,N/A,,Clear,0,2013-10-03 20:15:00
4:35 PM,73.0,43.5,35,30.01,10.0,WNW,5.8,-,N/A,,Clear,300,2013-10-03 20:35:00
4:55 PM,73.2,43.3,34,30.01,10.0,WNW,4.6,-,N/A,,Clear,300,2013-10-03 20:55:00
5:15 PM,71.8,43.7,36,30.01,10.0,NW,5.8,-,N/A,,Clear,310,2013-10-03 21:15:00
5:35 PM,69.4,45.5,42,30.01,7.0,Calm,Calm,-,N/A,,Clear,0,2013-10-03 21:35:00
5:55 PM,65.3,51.6,61,30.01,10.0,Calm,Calm,-,N/A,,Clear,0,2013-10-03 21:55:00
6:15 PM,62.4,51.6,68,30.01,10.0,Calm,Calm,-,N/A,,Clear,0,2013-10-03 22:15:00
6:35 PM,59.4,52.5,78,30.02,10.0,Calm,Calm,-,N/A,,Clear,0,2013-10-03 22:35:00
6:55 PM,58.1,52.2,81,30.03,7.0,Calm,Calm,-,N/A,,Clear,0,2013-10-03 22:55:00
7:15 PM,56.5,51.8,84,30.04,10.0,Calm,Calm,-,N/A,,Clear,0,2013-10-03 23:15:00
7:35 PM,56.3,52.0,85,30.05,10.0,Calm,Calm,-,N/A,,Clear,0,2013-10-03 23:35:00
7:55 PM,55.4,51.6,87,30.05,10.0,Calm,Calm,-,N/A,,Clear,0,2013-10-03 23:55:00
8:15 PM,54.3,51.6,91,30.06,10.0,Calm,Calm,-,N/A,,Clear,0,2013-10-04 00:15:00
8:35 PM,53.6,51.1,91,30.06,10.0,Calm,Calm,-,N/A,,Clear,0,2013-10-04 00:35:00
8:55 PM,52.9,50.9,93,30.06,10.0,Calm,Calm,-,N/A,,Clear,0,2013-10-04 00:55:00
9:15 PM,52.3,50.5,94,30.07,10.0,Calm,Calm,-,N/A,,Clear,0,2013-10-04 01:15:00
9:35 PM,50.4,48.9,95,30.07,7.0,Calm,Calm,-,N/A,,Clear,0,2013-10-04 01:35:00
9:55 PM,50.2,48.9,95,30.08,10.0,Calm,Calm,-,N/A,,Clear,0,2013-10-04 01:55:00
10:15 PM,50.0,48.7,95,30.08,1.2,Calm,Calm,-,N/A,,Mist,0,2013-10-04 02:15:00
10:35 PM,48.9,47.8,96,30.08,7.0,Calm,Calm,-,N/A,,Clear,0,2013-10-04 02:35:00
10:55 PM,48.2,47.3,97,30.08,1.0,Calm,Calm,-,N/A,,Mist,0,2013-10-04 02:55:00
11:15 PM,47.1,46.2,97,30.08,0.5,Calm,Calm,-,N/A,Fog,Fog,0,2013-10-04 03:15:00
11:35 PM,46.2,45.7,98,30.08,4.0,Calm,Calm,-,N/A,,Clear,0,2013-10-04 03:35:00
11:55 PM,46.0,45.3,97,30.08,2.5,Calm,Calm,-,N/A,,Clear,0,2013-10-04 03:55:00